GSAT0203 (GALILEO 7)

Last updated on Fri Jun 19 2026 17:09:21 GMT+0000 (Coordinated Universal Time)

1 40544U 15017A 26168.79938999 -.00000091 00000+0 00000+0 0 9996 2 40544 56.7854 341.5787 0002098 276.4201 83.5494 1.70476090 69215
UTC large
Height (km)
Speed (km/s)
/
Latitude / Longitude
Inclination (degrees)
Orbital Period (minutes)
Azimuth
Elevation
Range (km)
Doppler Factor

Next 0 passes for location: London (51.5072 / 0.1276)

No passes found over London.
GSAT0203 (GALILEO 7)